Location: Helsinki
(60.1699°N, 24.9384°E)
Time: 20:10:13
(UTC+02:00)

Transit 2A Rocket - Pass Details

Date: 27 September 2023
Orbit: 593 x 903 km, 66.7° (Epoch: 28 November)

Event Time Altitude Azimuth Distance (km) Brightness Sun altitude
Rises 14:03:54 0° 156° (SSE) 3,298 9.0 27.4°
Reaches altitude 10° 14:08:13 10° 124° (SE) 2,289 7.8 27.2°
Maximum altitude 14:09:45 11° 107° (ESE) 2,173 7.5 27.2°
Drops below altitude 10° 14:11:15 10° 90° (E) 2,231 7.3 27.1°
Sets 14:15:17 0° 56° (ENE) 3,073 7.7 27.0°
